SCP
0 0 -0 -0 0 0 0 -0 0 0 0 0 0 0 0 0 0 0 0 0 0 -0 -0 -0 -1 -1 -1 -0 -0 -0 -0 -0 -0 -0 0 0 0 0 0 0 0 0 0 0 0 0 0 0 0
0 -0 -0 0 0 0 -0 -0 0 0 0 0 0 0 0 0 0 0 0 0 0 -0 -0 -0 -0 -0 -1 -1 -0 -0 -0 -0 -0 -0 -0 -0 0 0 0 0 0 0 0 0 0 0 0 0 0
-0 -0 -0 0 0 0 0 0 0 0 0 0 0 0 0 0 0 0 0 -0 -0 0 -0 -0 -1 -0 -0 -0 -0 -0 -0 -0 -0 -0 -0 -0 -0 -0 0 0 0 0 0 0 0 0 0 0 0
-0 -0 0 0 0 0 0 0 0 0 0 0 0 0 0 0 0 0 0 0 -0 -0 -0 -0 -1 -1 -1 -0 -0 -0 -0 -0 -0 -0 -0 -0 -0 -0 -0 0 0 0 0 0 0 0 0 0 0
-0 0 0 0 0 0 0 0 0 0 0 0 0 0 0 0 0 0 0 0 0 0 0 -0 -0 -1 -1 -1 -1 -0 -0 -0 -0 -0 -0 -0 -0 -0 0 0 0 0 0 0 0 0 0 0 0
0 0 0 0 0 0 0 -0 0 0 0 0 0 0 0 0 0 0 0 0 0 0 0 0 -0 -0 -0 -0 -0 -0 -0 -0 0 0 0 0 -0 0 0 0 0 0 0 0 0 0 0 0 0
0 0 0 0 0 0 0 0 0 0 0 0 0 0 0 0 -0 0 0 0 0 0 0 0 0 0 -0 -0 -0 -0 -0 -0 -0 0 0 0 0 0 0 0 0 0 0 0 0 0 0 0 0
0 0 0 0 0 0 0 0 0 0 0 0 0 0 0 0 0 0 0 0 0 0 0 0 0 0 0 0 0 0 0 0 0 0 0 0 0 0 0 0 0 0 0 0 0 0 0 0 0
0 0 0 0 0 0 0 0 0 0 0 0 0 0 0 0 0 0 0 0 0 0 0 0 0 0 0 0 0 0 0 0 0 0 0 0 0 0 0 0 0 0 0 0 0 0 0 0 0
0 0 0 0 0 0 0 0 0 0 0 0 0 0 0 0 0 0 0 0 0 0 0 0 0 0 0 0 0 0 0 0 0 0 0 0 0 0 0 0 0 0 0 0 0 0 0 0 0
0 0 0 0 0 0 0 0 0 0 0 0 0 0 0 0 0 0 0 0 0 0 0 0 0 0 0 0 0 0 0 0 0 0 0 0 0 0 0 0 0 0 0 0 0 0 0 0 0
0 0 0 0 0 0 0 0 0 0 0 0 0 0 0 0 0 0 0 0 0 0 0 0 0 0 0 0 0 0 0 0 0 0 0 0 0 0 0 0 0 0 0 0 0 0 0 0 0
0 0 0 0 0 0 0 0 0 0 0 0 0 0 0 0 0 0 0 0 0 0 0 0 0 0 0 0 0 0 0 0 0 0 0 0 0 0 0 0 0 0 0 0 0 0 0 0 0
0 0 0 0 0 0 0 0 0 0 0 0 0 0 0 0 0 0 0 0 0 0 0 0 0 0 0 0 0 0 0 0 0 0 0 0 0 0 0 0 0 0 0 0 0 0 0 0 0
0 0 0 0 0 0 0 0 0 0 0 0 0 0 0 0 0 0 0 0 0 0 0 0 0 0 0 0 0 0 0 0 0 0 0 0 0 0 0 0 0 0 0 0 0 0 0 0 0
0 0 0 0 0 0 0 0 0 0 0 0 0 0 0 0 0 0 0 0 0 0 0 0 0 0 0 0 0 0 0 0 0 0 0 0 0 0 0 0 0 0 0 0 0 0 0 0 0
0 0 0 0 0 0 0 0 0 0 0 0 0 0 0 0 0 0 0 0 0 0 0 0 0 0 0 0 0 0 0 0 0 0 0 0 0 0 0 0 0 0 0 0 0 0 0 0 0
0 0 0 0 0 0 0 0 0 0 0 0 0 0 0 0 0 0 0 0 0 0 0 0 0 0 0 0 0 0 0 0 0 0 0 0 0 0 0 0 0 0 0 0 0 0 0 0 0
0 0 0 0 0 0 0 0 0 0 0 0 0 0 0 0 0 0 0 0 0 0 0 0 0 0 0 0 0 0 0 0 0 0 0 0 0 0 0 0 0 0 0 0 0 0 0 0 0
0 0 0 0 0 0 0 0 0 0 0 0 0 0 0 0 0 0 0 0 0 0 0 0 0 0 0 0 0 0 0 0 0 0 0 0 0 0 0 0 0 0 0 0 0 0 0 0 0
0 0 0 0 0 0 0 0 0 0 0 0 0 0 0 0 0 0 0 0 0 0 0 0 0 0 0 0 0 0 0 0 0 0 0 0 0 0 0 0 0 0 0 0 0 0 0 0 0
0 0 0 0 0 0 0 0 0 0 0 0 0 0 0 0 0 0 0 0 0 0 0 0 0 0 0 0 0 0 0 0 0 0 0 0 0 0 0 0 0 0 0 0 0 0 0 0 0
0 0 0 0 0 0 0 0 0 0 0 0 0 0 0 0 0 0 0 0 0 0 0 0 0 0 0 0 0 0 0 0 0 0 0 0 0 0 0 0 0 0 0 0 0 0 0 0 0
0 0 0 0 0 0 0 0 0 0 0 0 0 0 0 0 0 0 0 0 0 0 0 0 0 0 0 0 0 0 0 0 0 0 0 0 0 0 0 0 0 0 0 0 0 0 0 0 0
0 0 0 0 0 0 0 0 0 0 0 0 0 0 0 0 0 0 0 0 0 0 0 0 0 0 0 0 0 0 0 0 0 0 0 0 0 0 0 0 0 0 0 0 0 0 0 0 0
0 0 0 0 0 0 0 0 0 0 0 0 0 0 0 0 0 0 0 0 0 0 0 0 0 0 0 0 0 0 0 0 0 0 0 0 0 0 0 0 0 0 0 0 0 0 0 0 0
0 0 0 0 0 0 0 0 0 0 0 0 0 0 0 0 0 0 0 0 0 0 0 0 0 -0 -0 -0 -0 -0 -0 0 0 0 0 0 0 0 0 0 0 0 0 0 0 0 0 0 0
0 0 0 0 0 0 0 0 0 0 0 0 0 0 0 0 0 0 0 0 0 0 0 0 -0 -0 -0 -0 0 0 0 0 0 0 0 0 0 0 0 0 0 0 0 0 0 0 0 0 0
0 0 0 0 0 0 0 0 0 0 0 0 0 0 0 0 0 0 0 0 0 0 -0 -0 -0 0 0 0 0 0 0 0 0 0 0 0 0 0 0 0 0 0 0 0 0 0 0 0 0
0 0 0 0 0 0 0 0 0 0 0 0 0 0 0 0 0 0 0 0 0 0 0 0 0 0 0 0 0 0 0 0 0 0 0 0 0 0 0 0 0 0 0 0 0 0 0 0 0
Wind_Speed_500mb
6 8 8 3 9 10 2 4 1 2 3 1 4 2 3 2 4 6 3 3 3 11 20 43 41 37 35 31 27 23 20 18 16 15 14 13 11 11 10 8 9 10 7 5 4 5 6 5 5
3 4 4 5 10 8 7 8 3 3 4 5 1 2 4 1 1 2 3 5 3 8 14 34 45 41 39 34 30 26 24 22 20 18 17 16 16 15 12 11 11 10 11 8 5 1 1 3 3
2 5 4 8 7 8 8 6 4 2 4 2 3 1 0 3 2 1 3 7 7 10 15 21 41 45 43 39 35 31 28 26 24 22 21 20 19 16 14 14 16 20 21 12 11 8 5 5 6
1 3 7 8 4 6 11 9 8 4 2 1 3 3 1 4 1 4 7 7 4 9 16 20 33 45 46 44 41 36 32 29 27 26 23 22 22 20 20 19 19 23 27 20 17 15 12 12 13
6 5 8 5 6 3 3 4 8 6 5 4 4 3 7 8 9 8 6 10 8 6 12 21 28 40 45 46 44 41 36 33 29 27 25 24 25 23 17 23 28 22 23 20 21 19 17 15 15
5 5 9 2 8 7 4 0 6 6 9 6 6 11 8 7 9 6 6 15 11 8 10 17 24 32 43 46 45 43 40 37 34 29 27 24 26 29 14 9 20 24 24 19 19 18 17 16 16
8 7 7 6 5 3 6 2 5 3 6 1 2 5 9 10 7 8 10 19 20 16 14 18 22 27 36 44 46 46 44 42 40 36 32 29 30 36 26 18 17 24 26 22 19 18 16 16 16
3 8 1 4 5 4 6 7 5 8 4 3 4 4 6 20 21 23 20 20 21 20 22 23 25 29 33 40 46 48 47 47 44 40 37 36 39 41 34 26 23 23 25 24 20 18 17 18 19
1 8 2 5 3 5 10 10 7 11 11 20 14 18 27 13 31 24 27 31 28 29 27 26 29 31 34 38 42 47 50 52 50 44 42 41 46 47 42 33 29 25 24 24 21 20 20 22 22
6 6 11 5 1 4 12 3 14 9 26 33 38 27 28 35 31 31 32 35 35 35 31 28 25 26 32 38 42 48 52 50 50 48 44 45 48 51 47 40 38 35 29 27 25 24 24 26 25
6 8 6 7 3 11 12 24 10 5 12 45 41 40 34 37 40 34 29 32 35 32 29 29 28 24 25 29 36 44 52 54 53 52 47 48 48 53 51 49 47 43 38 33 32 29 29 30 29
4 19 19 12 12 9 8 15 23 16 25 39 31 30 22 19 18 21 20 22 27 32 30 33 38 33 30 30 31 36 45 51 56 56 55 53 54 56 56 51 52 49 44 40 38 32 34 35 33
9 9 15 25 33 28 29 33 19 44 25 15 15 23 26 17 8 11 11 16 22 27 31 34 32 32 31 34 34 33 36 44 44 48 53 57 56 58 55 53 53 51 49 44 42 40 39 40 38
2 12 22 27 44 26 16 4 1 21 15 17 17 24 18 8 5 6 9 14 15 17 25 32 36 36 29 32 34 35 33 31 36 38 41 48 49 54 56 57 56 55 47 47 46 45 44 44 44
5 12 17 22 14 9 12 4 13 23 29 18 17 10 4 5 6 10 12 17 21 23 21 25 29 32 34 27 30 36 33 31 33 34 36 38 43 51 51 58 61 60 50 46 48 50 50 51 50
4 5 8 8 8 3 8 16 15 29 33 18 8 10 8 6 4 5 9 14 19 21 21 24 24 21 27 24 19 33 34 32 32 32 33 36 40 43 51 54 57 56 53 48 51 53 55 54 54
5 6 10 15 4 6 6 13 25 44 21 12 14 13 14 16 16 14 13 13 12 10 8 7 8 13 17 18 19 26 28 26 25 25 28 31 35 38 42 45 50 48 52 53 52 55 56 55 56
11 8 9 11 5 2 7 20 20 49 9 17 19 20 20 21 23 24 22 19 17 15 13 11 7 3 5 10 14 19 22 19 19 23 22 23 26 32 36 39 42 47 50 54 54 56 56 58 55
6 9 11 10 14 8 18 14 20 39 6 21 30 28 26 28 29 28 29 30 30 27 24 23 17 14 3 8 13 16 17 18 11 14 21 24 24 24 26 30 36 42 48 51 52 53 57 60 58
11 10 15 11 14 9 13 14 22 13 12 24 41 33 29 29 29 33 36 38 43 43 42 38 36 31 26 18 12 7 8 16 19 13 16 21 23 25 26 28 30 36 44 48 52 54 59 61 61
8 13 8 16 8 8 6 13 16 8 25 35 31 31 29 29 32 34 37 41 42 46 46 45 43 40 37 32 24 17 9 8 12 13 16 19 21 24 27 26 30 36 38 41 47 52 57 62 63
10 15 16 11 5 8 3 10 10 7 10 14 28 29 29 31 30 31 35 37 41 44 39 39 40 39 38 32 28 23 24 20 18 9 3 7 15 24 27 30 34 35 39 44 45 44 50 59 64
15 5 6 2 6 3 7 4 12 11 5 10 19 28 26 25 26 28 31 32 34 34 32 34 33 33 33 31 30 28 26 25 19 14 11 10 10 10 13 21 26 33 39 40 40 44 48 54 60
7 7 13 10 5 3 15 15 4 7 7 11 22 32 32 27 24 24 26 25 28 29 29 31 32 33 30 28 27 26 23 23 18 21 22 23 22 18 15 19 24 26 28 32 42 46 48 52 59
7 11 5 7 4 12 7 4 12 8 4 21 38 40 31 24 22 20 19 18 22 24 25 27 26 26 24 21 20 22 22 23 25 26 25 22 24 26 29 29 28 29 28 30 36 40 45 51 54
14 17 12 13 7 10 1 12 6 6 18 45 49 41 31 25 20 16 12 11 13 14 16 18 14 12 12 15 19 18 19 22 24 28 28 28 27 28 29 30 31 31 32 33 33 33 36 45 52
7 8 4 9 4 3 9 6 6 11 12 28 39 38 32 25 20 17 10 4 2 4 4 5 6 9 12 12 12 14 17 18 21 23 26 31 30 29 29 32 34 37 37 37 39 40 38 38 41
4 9 6 4 3 9 9 9 10 15 16 15 23 32 28 24 20 15 13 10 8 4 0 5 9 11 11 9 12 16 18 21 23 26 27 31 37 39 41 43 45 47 47 46 44 46 47 49 46
4 6 3 5 9 10 4 11 6 14 21 26 33 39 37 31 25 26 24 22 18 10 3 2 4 6 8 13 17 19 21 23 26 28 32 34 38 42 44 47 50 53 56 59 60 58 57 59 61
2 10 12 10 11 7 5 18 2 10 19 34 42 42 36 28 29 34 33 28 21 15 11 8 6 6 9 14 17 21 26 30 35 38 41 44 46 48 52 55 60 63 68 72 75 76 75 75 74
Wind_Direction_500mb
311 300 318 58 57 66 308 266 116 58 20 244 315 66 172 260 151 209 204 176 247 178 188 192 196 196 198 200 203 207 210 213 214 216 213 210 207 210 207 196 178 219 223 233 110 78 102 104 130
303 309 27 73 85 77 287 275 102 228 192 123 157 25 64 113 152 186 168 300 277 203 198 198 202 204 205 209 215 220 224 231 233 228 222 220 222 221 228 236 215 208 221 219 230 25 145 151 161
333 9 32 87 108 155 181 246 248 257 145 130 103 291 53 184 176 32 8 291 287 221 207 208 211 213 215 217 221 227 229 230 232 230 230 231 236 246 243 231 219 207 228 249 245 255 253 236 243
263 17 54 80 175 229 163 222 228 125 72 86 75 35 215 222 256 93 58 8 310 238 214 214 213 218 222 225 228 229 231 233 231 233 233 236 249 255 251 239 224 227 246 247 249 261 257 258 259
33 39 48 51 288 255 202 199 66 26 350 345 348 297 299 223 199 156 58 16 348 268 235 217 218 220 224 228 231 233 234 234 231 228 233 241 254 253 264 244 231 228 242 240 248 254 257 260 258
56 58 55 18 294 326 309 47 82 50 44 11 350 320 308 232 199 249 310 345 328 286 255 239 230 226 228 230 233 235 236 236 237 233 243 251 248 255 246 262 251 248 261 264 251 254 259 258 251
100 82 183 219 252 211 242 110 97 125 10 139 312 301 293 249 250 270 286 320 314 294 262 247 240 236 231 232 235 237 238 238 238 237 236 237 241 253 252 257 272 259 260 260 255 250 247 243 231
53 94 38 276 315 305 329 336 344 358 322 200 284 251 323 347 311 299 297 311 312 306 295 263 249 242 238 234 234 236 239 239 240 238 238 233 236 248 253 256 267 274 265 255 250 246 241 229 221
72 57 233 239 56 294 348 18 3 332 312 296 268 281 304 307 334 301 290 302 301 302 303 296 266 254 250 243 240 238 236 236 237 233 236 234 237 244 250 253 261 270 270 259 248 240 233 224 226
85 110 225 216 126 302 303 292 310 320 312 300 299 304 320 308 316 310 299 301 295 297 300 296 288 275 263 252 246 243 240 232 232 235 232 233 238 245 250 254 258 265 269 260 250 243 232 228 230
162 196 230 216 259 337 302 312 335 346 306 304 314 322 321 311 310 298 287 286 279 277 279 285 288 280 268 264 257 250 242 237 237 239 236 234 235 238 248 251 255 263 268 262 249 243 235 233 235
159 248 244 273 293 320 293 301 310 255 275 323 334 333 349 326 303 309 301 293 286 275 269 259 252 268 277 274 269 258 248 244 242 242 242 237 236 240 243 246 253 259 265 266 259 247 239 237 238
192 257 263 266 281 280 278 276 272 279 306 328 14 358 347 323 303 291 302 287 274 265 256 261 259 252 266 275 274 267 258 249 246 244 242 243 240 240 244 251 255 257 260 262 259 251 245 242 242
251 277 276 281 276 269 242 276 191 289 302 321 348 354 337 350 321 274 269 294 290 269 266 256 254 255 245 262 274 277 275 271 256 250 248 251 251 246 248 252 258 266 263 264 263 256 248 246 244
295 314 325 279 279 211 178 278 225 288 292 340 5 328 279 332 330 319 310 304 297 288 278 270 263 249 249 250 265 269 275 280 275 265 259 259 260 253 250 254 256 261 269 274 264 257 250 246 245
349 30 345 289 147 141 150 267 258 300 296 12 58 157 147 115 62 12 343 318 307 303 287 272 266 255 235 238 234 249 260 271 278 276 265 258 259 258 254 254 256 262 259 274 272 266 259 253 249
350 213 207 310 271 132 137 246 276 301 309 44 135 132 112 85 71 58 32 15 9 10 2 335 274 252 228 220 217 230 237 251 264 269 268 268 266 264 261 263 261 259 256 264 271 270 264 260 256
209 214 234 223 268 89 226 248 267 282 33 147 150 132 114 99 76 67 61 57 52 47 44 47 65 119 197 198 209 215 218 218 248 258 260 264 270 273 271 267 265 263 263 267 268 269 263 261 260
187 194 223 252 252 190 244 242 260 266 135 158 156 140 114 95 90 84 78 72 71 73 76 70 72 81 132 225 218 213 206 200 219 263 272 272 275 278 282 282 278 277 277 274 277 273 269 265 263
256 256 258 280 269 171 274 276 267 294 273 213 165 139 123 109 100 94 90 83 78 75 74 74 70 68 70 75 88 134 197 212 210 248 275 283 278 277 274 278 282 282 282 280 278 274 273 270 265
218 212 226 238 312 280 322 301 269 63 79 107 128 136 132 122 107 97 94 89 88 80 73 74 74 73 67 64 71 85 109 148 200 229 257 269 279 283 276 274 270 270 273 277 279 277 277 277 273
260 218 209 223 137 231 101 275 286 180 118 100 134 135 131 123 110 99 92 88 83 77 75 75 72 69 70 72 75 76 80 87 92 95 48 297 278 272 268 266 265 265 268 274 275 277 275 274 273
234 163 181 135 154 12 297 289 246 123 170 167 147 136 129 117 108 97 90 83 79 79 69 66 66 67 64 62 60 56 54 55 50 41 16 7 348 324 300 290 283 271 265 271 272 270 272 273 274
123 68 33 42 74 290 222 192 242 178 230 145 153 147 138 128 111 96 86 84 77 71 65 58 51 51 47 44 47 51 57 62 57 52 37 31 24 12 347 322 313 308 298 289 274 269 268 267 269
115 92 323 331 342 233 183 186 251 295 306 180 152 146 141 140 133 117 98 83 70 63 59 55 50 48 41 37 40 43 41 36 32 35 32 27 24 21 17 10 2 351 336 315 298 290 280 270 269
181 164 169 212 212 250 346 243 265 2 76 128 147 149 153 155 151 137 126 93 70 63 60 55 46 52 59 53 45 44 44 42 38 36 27 21 20 17 11 6 1 356 350 348 343 324 302 289 281
190 190 187 112 96 72 212 266 165 96 82 119 144 156 165 170 173 173 159 131 94 70 57 61 78 74 53 45 48 39 34 29 28 23 14 7 0 359 355 349 345 343 340 338 335 333 330 324 312
123 154 70 2 212 249 271 256 222 198 173 169 174 175 174 179 189 206 215 234 249 240 284 68 70 57 59 54 34 22 14 8 1 354 347 344 339 337 336 335 333 331 332 329 325 322 320 317 315
144 216 205 166 161 194 233 258 247 173 182 187 188 192 191 205 219 222 226 223 228 231 264 348 16 19 7 357 354 351 347 347 342 339 335 332 330 328 328 326 324 322 322 321 320 318 316 312 309
180 200 176 195 244 240 192 251 280 163 171 180 193 200 210 226 236 224 223 219 222 228 236 236 234 266 315 332 335 334 333 332 331 331 330 327 322 322 321 319 318 316 314 313 313 312 310 308 305
Wind_Speed_850mb
6 8 8 3 9 10 2 4 1 2 3 1 4 2 3 2 4 6 3 3 3 11 20 43 41 37 35 31 27 23 20 18 16 15 14 13 11 11 10 8 9 10 7 5 4 5 6 5 5
3 4 4 5 10 8 7 8 3 3 4 5 1 2 4 1 1 2 3 5 3 8 14 34 45 41 39 34 30 26 24 22 20 18 17 16 16 15 12 11 11 10 11 8 5 1 1 3 3
2 5 4 8 7 8 8 6 4 2 4 2 3 1 0 3 2 1 3 7 7 10 15 21 41 45 43 39 35 31 28 26 24 22 21 20 19 16 14 14 16 20 21 12 11 8 5 5 6
1 3 7 8 4 6 11 9 8 4 2 1 3 3 1 4 1 4 7 7 4 9 16 20 33 45 46 44 41 36 32 29 27 26 23 22 22 20 20 19 19 23 27 20 17 15 12 12 13
6 5 8 5 6 3 3 4 8 6 5 4 4 3 7 8 9 8 6 10 8 6 12 21 28 40 45 46 44 41 36 33 29 27 25 24 25 23 17 23 28 22 23 20 21 19 17 15 15
5 5 9 2 8 7 4 0 6 6 9 6 6 11 8 7 9 6 6 15 11 8 10 17 24 32 43 46 45 43 40 37 34 29 27 24 26 29 14 9 20 24 24 19 19 18 17 16 16
8 7 7 6 5 3 6 2 5 3 6 1 2 5 9 10 7 8 10 19 20 16 14 18 22 27 36 44 46 46 44 42 40 36 32 29 30 36 26 18 17 24 26 22 19 18 16 16 16
3 8 1 4 5 4 6 7 5 8 4 3 4 4 6 20 21 23 20 20 21 20 22 23 25 29 33 40 46 48 47 47 44 40 37 36 39 41 34 26 23 23 25 24 20 18 17 18 19
1 8 2 5 3 5 10 10 7 11 11 20 14 18 27 13 31 24 27 31 28 29 27 26 29 31 34 38 42 47 50 52 50 44 42 41 46 47 42 33 29 25 24 24 21 20 20 22 22
6 6 11 5 1 4 12 3 14 9 26 33 38 27 28 35 31 31 32 35 35 35 31 28 25 26 32 38 42 48 52 50 50 48 44 45 48 51 47 40 38 35 29 27 25 24 24 26 25
6 8 6 7 3 11 12 24 10 5 12 45 41 40 34 37 40 34 29 32 35 32 29 29 28 24 25 29 36 44 52 54 53 52 47 48 48 53 51 49 47 43 38 33 32 29 29 30 29
4 19 19 12 12 9 8 15 23 16 25 39 31 30 22 19 18 21 20 22 27 32 30 33 38 33 30 30 31 36 45 51 56 56 55 53 54 56 56 51 52 49 44 40 38 32 34 35 33
9 9 15 25 33 28 29 33 19 44 25 15 15 23 26 17 8 11 11 16 22 27 31 34 32 32 31 34 34 33 36 44 44 48 53 57 56 58 55 53 53 51 49 44 42 40 39 40 38
2 12 22 27 44 26 16 4 1 21 15 17 17 24 18 8 5 6 9 14 15 17 25 32 36 36 29 32 34 35 33 31 36 38 41 48 49 54 56 57 56 55 47 47 46 45 44 44 44
5 12 17 22 14 9 12 4 13 23 29 18 17 10 4 5 6 10 12 17 21 23 21 25 29 32 34 27 30 36 33 31 33 34 36 38 43 51 51 58 61 60 50 46 48 50 50 51 50
4 5 8 8 8 3 8 16 15 29 33 18 8 10 8 6 4 5 9 14 19 21 21 24 24 21 27 24 19 33 34 32 32 32 33 36 40 43 51 54 57 56 53 48 51 53 55 54 54
5 6 10 15 4 6 6 13 25 44 21 12 14 13 14 16 16 14 13 13 12 10 8 7 8 13 17 18 19 26 28 26 25 25 28 31 35 38 42 45 50 48 52 53 52 55 56 55 56
11 8 9 11 5 2 7 20 20 49 9 17 19 20 20 21 23 24 22 19 17 15 13 11 7 3 5 10 14 19 22 19 19 23 22 23 26 32 36 39 42 47 50 54 54 56 56 58 55
6 9 11 10 14 8 18 14 20 39 6 21 30 28 26 28 29 28 29 30 30 27 24 23 17 14 3 8 13 16 17 18 11 14 21 24 24 24 26 30 36 42 48 51 52 53 57 60 58
11 10 15 11 14 9 13 14 22 13 12 24 41 33 29 29 29 33 36 38 43 43 42 38 36 31 26 18 12 7 8 16 19 13 16 21 23 25 26 28 30 36 44 48 52 54 59 61 61
8 13 8 16 8 8 6 13 16 8 25 35 31 31 29 29 32 34 37 41 42 46 46 45 43 40 37 32 24 17 9 8 12 13 16 19 21 24 27 26 30 36 38 41 47 52 57 62 63
10 15 16 11 5 8 3 10 10 7 10 14 28 29 29 31 30 31 35 37 41 44 39 39 40 39 38 32 28 23 24 20 18 9 3 7 15 24 27 30 34 35 39 44 45 44 50 59 64
15 5 6 2 6 3 7 4 12 11 5 10 19 28 26 25 26 28 31 32 34 34 32 34 33 33 33 31 30 28 26 25 19 14 11 10 10 10 13 21 26 33 39 40 40 44 48 54 60
7 7 13 10 5 3 15 15 4 7 7 11 22 32 32 27 24 24 26 25 28 29 29 31 32 33 30 28 27 26 23 23 18 21 22 23 22 18 15 19 24 26 28 32 42 46 48 52 59
7 11 5 7 4 12 7 4 12 8 4 21 38 40 31 24 22 20 19 18 22 24 25 27 26 26 24 21 20 22 22 23 25 26 25 22 24 26 29 29 28 29 28 30 36 40 45 51 54
14 17 12 13 7 10 1 12 6 6 18 45 49 41 31 25 20 16 12 11 13 14 16 18 14 12 12 15 19 18 19 22 24 28 28 28 27 28 29 30 31 31 32 33 33 33 36 45 52
7 8 4 9 4 3 9 6 6 11 12 28 39 38 32 25 20 17 10 4 2 4 4 5 6 9 12 12 12 14 17 18 21 23 26 31 30 29 29 32 34 37 37 37 39 40 38 38 41
4 9 6 4 3 9 9 9 10 15 16 15 23 32 28 24 20 15 13 10 8 4 0 5 9 11 11 9 12 16 18 21 23 26 27 31 37 39 41 43 45 47 47 46 44 46 47 49 46
4 6 3 5 9 10 4 11 6 14 21 26 33 39 37 31 25 26 24 22 18 10 3 2 4 6 8 13 17 19 21 23 26 28 32 34 38 42 44 47 50 53 56 59 60 58 57 59 61
2 10 12 10 11 7 5 18 2 10 19 34 42 42 36 28 29 34 33 28 21 15 11 8 6 6 9 14 17 21 26 30 35 38 41 44 46 48 52 55 60 63 68 72 75 76 75 75 74
Wind_Direction_850mb
311 300 318 58 57 66 308 266 116 58 20 244 315 66 172 260 151 209 204 176 247 178 188 192 196 196 198 200 203 207 210 213 214 216 213 210 207 210 207 196 178 219 223 233 110 78 102 104 130
303 309 27 73 85 77 287 275 102 228 192 123 157 25 64 113 152 186 168 300 277 203 198 198 202 204 205 209 215 220 224 231 233 228 222 220 222 221 228 236 215 208 221 219 230 25 145 151 161
333 9 32 87 108 155 181 246 248 257 145 130 103 291 53 184 176 32 8 291 287 221 207 208 211 213 215 217 221 227 229 230 232 230 230 231 236 246 243 231 219 207 228 249 245 255 253 236 243
263 17 54 80 175 229 163 222 228 125 72 86 75 35 215 222 256 93 58 8 310 238 214 214 213 218 222 225 228 229 231 233 231 233 233 236 249 255 251 239 224 227 246 247 249 261 257 258 259
33 39 48 51 288 255 202 199 66 26 350 345 348 297 299 223 199 156 58 16 348 268 235 217 218 220 224 228 231 233 234 234 231 228 233 241 254 253 264 244 231 228 242 240 248 254 257 260 258
56 58 55 18 294 326 309 47 82 50 44 11 350 320 308 232 199 249 310 345 328 286 255 239 230 226 228 230 233 235 236 236 237 233 243 251 248 255 246 262 251 248 261 264 251 254 259 258 251
100 82 183 219 252 211 242 110 97 125 10 139 312 301 293 249 250 270 286 320 314 294 262 247 240 236 231 232 235 237 238 238 238 237 236 237 241 253 252 257 272 259 260 260 255 250 247 243 231
53 94 38 276 315 305 329 336 344 358 322 200 284 251 323 347 311 299 297 311 312 306 295 263 249 242 238 234 234 236 239 239 240 238 238 233 236 248 253 256 267 274 265 255 250 246 241 229 221
72 57 233 239 56 294 348 18 3 332 312 296 268 281 304 307 334 301 290 302 301 302 303 296 266 254 250 243 240 238 236 236 237 233 236 234 237 244 250 253 261 270 270 259 248 240 233 224 226
85 110 225 216 126 302 303 292 310 320 312 300 299 304 320 308 316 310 299 301 295 297 300 296 288 275 263 252 246 243 240 232 232 235 232 233 238 245 250 254 258 265 269 260 250 243 232 228 230
162 196 230 216 259 337 302 312 335 346 306 304 314 322 321 311 310 298 287 286 279 277 279 285 288 280 268 264 257 250 242 237 237 239 236 234 235 238 248 251 255 263 268 262 249 243 235 233 235
159 248 244 273 293 320 293 301 310 255 275 323 334 333 349 326 303 309 301 293 286 275 269 259 252 268 277 274 269 258 248 244 242 242 242 237 236 240 243 246 253 259 265 266 259 247 239 237 238
192 257 263 266 281 280 278 276 272 279 306 328 14 358 347 323 303 291 302 287 274 265 256 261 259 252 266 275 274 267 258 249 246 244 242 243 240 240 244 251 255 257 260 262 259 251 245 242 242
251 277 276 281 276 269 242 276 191 289 302 321 348 354 337 350 321 274 269 294 290 269 266 256 254 255 245 262 274 277 275 271 256 250 248 251 251 246 248 252 258 266 263 264 263 256 248 246 244
295 314 325 279 279 211 178 278 225 288 292 340 5 328 279 332 330 319 310 304 297 288 278 270 263 249 249 250 265 269 275 280 275 265 259 259 260 253 250 254 256 261 269 274 264 257 250 246 245
349 30 345 289 147 141 150 267 258 300 296 12 58 157 147 115 62 12 343 318 307 303 287 272 266 255 235 238 234 249 260 271 278 276 265 258 259 258 254 254 256 262 259 274 272 266 259 253 249
350 213 207 310 271 132 137 246 276 301 309 44 135 132 112 85 71 58 32 15 9 10 2 335 274 252 228 220 217 230 237 251 264 269 268 268 266 264 261 263 261 259 256 264 271 270 264 260 256
209 214 234 223 268 89 226 248 267 282 33 147 150 132 114 99 76 67 61 57 52 47 44 47 65 119 197 198 209 215 218 218 248 258 260 264 270 273 271 267 265 263 263 267 268 269 263 261 260
187 194 223 252 252 190 244 242 260 266 135 158 156 140 114 95 90 84 78 72 71 73 76 70 72 81 132 225 218 213 206 200 219 263 272 272 275 278 282 282 278 277 277 274 277 273 269 265 263
256 256 258 280 269 171 274 276 267 294 273 213 165 139 123 109 100 94 90 83 78 75 74 74 70 68 70 75 88 134 197 212 210 248 275 283 278 277 274 278 282 282 282 280 278 274 273 270 265
218 212 226 238 312 280 322 301 269 63 79 107 128 136 132 122 107 97 94 89 88 80 73 74 74 73 67 64 71 85 109 148 200 229 257 269 279 283 276 274 270 270 273 277 279 277 277 277 273
260 218 209 223 137 231 101 275 286 180 118 100 134 135 131 123 110 99 92 88 83 77 75 75 72 69 70 72 75 76 80 87 92 95 48 297 278 272 268 266 265 265 268 274 275 277 275 274 273
234 163 181 135 154 12 297 289 246 123 170 167 147 136 129 117 108 97 90 83 79 79 69 66 66 67 64 62 60 56 54 55 50 41 16 7 348 324 300 290 283 271 265 271 272 270 272 273 274
123 68 33 42 74 290 222 192 242 178 230 145 153 147 138 128 111 96 86 84 77 71 65 58 51 51 47 44 47 51 57 62 57 52 37 31 24 12 347 322 313 308 298 289 274 269 268 267 269
115 92 323 331 342 233 183 186 251 295 306 180 152 146 141 140 133 117 98 83 70 63 59 55 50 48 41 37 40 43 41 36 32 35 32 27 24 21 17 10 2 351 336 315 298 290 280 270 269
181 164 169 212 212 250 346 243 265 2 76 128 147 149 153 155 151 137 126 93 70 63 60 55 46 52 59 53 45 44 44 42 38 36 27 21 20 17 11 6 1 356 350 348 343 324 302 289 281
190 190 187 112 96 72 212 266 165 96 82 119 144 156 165 170 173 173 159 131 94 70 57 61 78 74 53 45 48 39 34 29 28 23 14 7 0 359 355 349 345 343 340 338 335 333 330 324 312
123 154 70 2 212 249 271 256 222 198 173 169 174 175 174 179 189 206 215 234 249 240 284 68 70 57 59 54 34 22 14 8 1 354 347 344 339 337 336 335 333 331 332 329 325 322 320 317 315
144 216 205 166 161 194 233 258 247 173 182 187 188 192 191 205 219 222 226 223 228 231 264 348 16 19 7 357 354 351 347 347 342 339 335 332 330 328 328 326 324 322 322 321 320 318 316 312 309
180 200 176 195 244 240 192 251 280 163 171 180 193 200 210 226 236 224 223 219 222 228 236 236 234 266 315 332 335 334 333 332 331 331 330 327 322 322 321 319 318 316 314 313 313 312 310 308 305